P/2014 W1 ( PanSTARRS )

Japanese version
Home page
Updated on July 20, 2015

---------------------------------------------------------------------

* Profile

Discovery Date November 17, 2014
Magnitude 20.9 mag
Discoverer Pan-STARRS 1 telescope (Haleakala)

* Pictures

* Orbital Elements

Epoch 2014 Aug. 11.0 TT = JDT 2456880.5
T 2014 Aug. 1.06651 TT                                  MPCW
q   2.6620951            (2000.0)            P               Q
n   0.10643641     Peri.  150.34433     +0.78698070     -0.60059688
a   4.4097020      Node   247.24879     +0.53164025     +0.77627871
e   0.3963095      Incl.    8.80902     +0.31308150     +0.19150651
P   9.26
From 47 observations 2014 Nov. 17-2015 Feb. 14, mean residual 0".4.

* Magnitudes Graph

        m1 = 13.5 + 5 log d + 10.0 log r

---------------------------------------------------------------------

The orbital elements are published on M.P.E.C. 2015-G03.
The magnitudes graphs are made with Comet for Windows.

---------------------------------------------------------------------

Copyright(C) Seiichi Yoshida (comet@aerith.net). All rights reserved.